Home > Weather > Madrid > Past weeks

Flag for Spain Weather for the Past 2 Weeks in Madrid, Spain

Now
48 °F

Passing clouds.


Feels Like: 46 °F
Forecast: 38 / 71 °F
Wind: 5 mph from Northeast

Location: Madrid / Cuatro Vientos

Current Time: May 1, 2016 at 10:48:34 AM

Latest Report: May 1, 2016 at 10:00 AM


Visibility: N/A

Pressure: 30.33 "Hg (28.01 "Hg at 658m altitude)

Humidity: 43%

Dew Point: 27 °F

Location of MadridLocation

Historic Weather in Madrid — Graph

°F

Madrid Temperature Yesterday

Maximum temperature yesterday: 68 °F (at 4:30 PM)
Minimum temperature yesterday: 45 °F (at 7:30 AM)
Average temperature yesterday: 60 °F

High & Low Weather Summary for the Past Weeks

 TemperatureHumidityPressure
High72 °F (Apr 18, 6:30 PM)100% (Apr 16, 11:00 AM)30.33 "Hg (Apr 16, 11:00 AM)
Low41 °F (May 1, 7:30 AM)24% (Apr 25, 7:00 PM)29.80 "Hg (Apr 27, 4:00 PM)
Average58 °F62%30.00 "Hg
* Reported Apr 16 9:00 AM — May 1 9:00 AM, Madrid, Weather by CustomWeather, © 2016

Note: Actual official high and low records may vary slightly from our data, if they occured in-between our weather recording intervals... More about our weather records

Advertising

Madrid Weather History for the Previous 24 Hours

Scroll right to see more
 ConditionsComfort  
Time TempWeatherWind HumidityBarometerVisibility
9:00 AM
Sun, May 1
45 °FPassing clouds.3 mph57%30.33 "HgN/A
8:30 AM43 °FPassing clouds.5 mph57%30.33 "HgN/A
8:00 AM43 °FPassing clouds.5 mph53%30.33 "HgN/A
7:30 AM41 °FPassing clouds.5 mph61%30.33 "HgN/A
10:00 PM
Sat, Apr 30
54 °FPassing clouds.9 mph35%30.24 "HgN/A
9:30 PM55 °FPassing clouds.8 mph31%30.21 "HgN/A
9:00 PM57 °FPassing clouds.9 mph33%30.18 "HgN/A
8:30 PM59 °FPassing clouds.12 mph29%30.18 "HgN/A
8:00 PM63 °FPassing clouds.9 mph24%30.18 "HgN/A
7:30 PM63 °FPassing clouds.10 mph25%30.15 "HgN/A
7:00 PM64 °FPassing clouds.8 mph26%30.15 "HgN/A
6:30 PM64 °FPassing clouds.7 mph30%30.15 "HgN/A
6:00 PM66 °FScattered clouds.5 mph28%30.12 "HgN/A
5:30 PM66 °FScattered clouds.6 mph30%30.12 "HgN/A
5:00 PM68 °FScattered clouds.7 mph33%30.12 "HgN/A
4:30 PM68 °FPassing clouds.No wind35%30.12 "HgN/A
4:00 PM64 °FPassing clouds.2 mph34%30.12 "HgN/A
3:30 PM64 °FPassing clouds.5 mph37%30.12 "HgN/A
3:00 PM66 °FPassing clouds.2 mph43%30.12 "HgN/A
2:30 PM61 °FScattered clouds.3 mph48%30.12 "HgN/A
2:00 PM64 °FPassing clouds.3 mph40%30.12 "HgN/A
1:30 PM64 °FPassing clouds.3 mph40%30.12 "HgN/A
1:00 PM61 °FScattered clouds.6 mph52%30.15 "HgN/A
12:30 PM64 °FScattered clouds.2 mph52%30.12 "HgN/A
12:00 PM61 °FScattered clouds.2 mph59%30.12 "HgN/A
11:30 AM59 °FPassing clouds.8 mph55%30.12 "HgN/A
11:00 AM57 °FPassing clouds.10 mph55%30.12 "HgN/A
10:30 AM57 °FPassing clouds.12 mph59%30.12 "HgN/A
10:00 AM59 °FSunny.No wind59%30.09 "Hg10 mi
Weather by CustomWeather, © 2016

See weather overviewHow to use our weather pages